Regional Weather Roundup
Issued by NWS

Home | Current Version | Previous Version | Graphics & Text | Print | Product List | Glossary On
Versions: 1 2 3 4 5 6 7 8 9 10 11 12 13 14 15 16 17 18 19 20 21 22 23 24 25 26 27 28 29 30 31 32 33 34 35 36 37 38 39 40 41 42 43 44 45 46 47 48 49 50
000
ASUS43 KBIS 220110
RWRND

NORTH DAKOTA REGIONAL WEATHER ROUNDUP
NATIONAL WEATHER SERVICE BISMARCK ND
800 PM CDT THU SEP 21 2017

NOTE: "FAIR" INDICATES FEW OR NO CLOUDS BELOW 12,000 FEET WITH NO
SIGNIFICANT WEATHER AND/OR OBSTRUCTIONS TO VISIBILITY.


NDZ001>003-009>011-017-220200-
NORTHWEST NORTH DAKOTA

CITY           SKY/WX    TMP DP  RH WIND       PRES   REMARKS
WILLISTON      CLOUDY    53  41  63 NW7       29.85R
MINOT          CLEAR     60  44  55 NW13      29.78R
MINOT AFB      CLOUDY    59  43  55 NW12      29.77R
$$

NDZ018>021-031>035-040>046-220200-
SOUTHWEST NORTH DAKOTA

CITY           SKY/WX    TMP DP  RH WIND       PRES   REMARKS
BISMARCK       CLEAR     68  45  43 N8        29.73R
DICKINSON      CLEAR     58  39  49 N9        29.80R
GARRISON         N/A     61  47  59 N6        29.77R
HETTINGER ARPT CLEAR     61  42  49 N10       29.79R
$$

NDZ004>008-012>016-024-026-027-054-220200-
NORTHEAST NORTH DAKOTA

CITY           SKY/WX    TMP DP  RH WIND       PRES   REMARKS
GRAND FORKS    PTCLDY    70  56  61 SE8       29.70R
GRND FRKS AFB  PTCLDY    70  52  52 SE10      29.70R
DEVILS LAKE    CLOUDY    67  55  65 N12       29.72R
$$

NDZ022-023-025-028>030-036>039-047>053-220200-
SOUTHEAST NORTH DAKOTA

CITY           SKY/WX    TMP DP  RH WIND       PRES   REMARKS
FARGO          CLOUDY    76  62  62 SE10      29.69R
JAMESTOWN      MOCLDY    73  60  63 SE9       29.67R
$$





USA.gov is the U.S. government's official web portal to all federal, state and local government web resources and services.